Tracking 18984 objects as of 24-Feb-2018
HD Live streaming from Space Station
objects crossing your sky now

YAOGAN 11 DEB

Track YAOGAN 11 DEB now!
10-day predictions


NORAD ID: 38175
Int'l Code: 2010-047E
Perigee: 647.1 km
Apogee: 940.3 km
Inclination: 98.1 °
Period: 100.6 minutes
Semi major axis: 7164 km
RCS: 0.0013 m2 (small)
Launch date: September 22, 2010
Source: People's Republic of China (PRC)
Launch site: Jiuquan Satellite Launch Center, China (JSC)

Note: This is SATELLITE DEBRIS
aabbcc
Your satellite tracking list
Your tracking list is empty




NASA's NSSDC Master Catalog

Two Line Element Set (TLE):
1 38175U 10047E   18054.63173690 +.00000387 +00000-0 +12906-3 0  9998
2 38175 098.0613 298.9961 0204606 022.6483 338.3573 14.31544159827545
Source of the keplerian elements: AFSPC